[[{"header":{"parameterUnit":"m.s-1","parameterCategory":1,"la1":30.2991,"la2":30.254,"lo1":-89.0895,"lo2":-89.0444,"dy":0.0017,"dx":0.0017,"nx":28,"ny":28,"refTime":"2024-12-25T09:00:00:Z","depth":0,"parameterNumber":2,"parameterNumberName":"U-component_of_WINDS"},"data":[0,0,0,0,0,0,0,0,0,0,0,0,0,0,0,0,0,0,0,0,0,0,0,0,0,0,0,0,0,0,0,0,0,0,0,0,0,0,0,0,0,0,0,0,0,0,0,0,0,0,0,0,0,0,0,0,0,0,-5.0908,-5.0909,0,-5.101,-5.1011,-5.1012,-5.1014,-5.1012,-5.1011,-5.101,-5.1113,-5.1117,-5.1121,0,0,0,0,0,0,0,0,0,0,0,0,0,-5.0715,-5.0718,-5.0908,-5.0909,-5.0911,-5.101,-5.1011,-5.1013,-5.1014,-5.1012,-5.1011,-5.1009,-5.1112,-5.1117,-5.1122,0,0,0,0,0,0,0,0,0,0,0,0,0,-5.0806,-5.0719,-5.0908,-5.0923,-5.0926,-5.101,-5.1011,-5.1013,-5.1014,-5.1012,-5.101,-5.1009,-5.1111,-5.1116,-5.1122,-5.1197,0,0,-5.114,-5.1143,0,0,0,0,0,0,0,0,-5.0801,-5.0813,-5.092,-5.0922,-5.0925,-5.0997,-5.0981,-5.1075,-5.1015,-5.0981,-5.101,-5.1008,-5.1076,-5.1085,-5.1108,-5.1202,-5.1207,-5.1141,-5.1144,-5.1147,-5.1149,0,0,0,0,0,0,0,-5.0794,-5.0809,-5.0948,-5.0921,-5.0925,-5.0925,-5.0936,-5.0999,-5.1038,-5.0983,-5.0984,-5.0996,-5.1077,-5.1102,-5.1111,-5.1208,-5.1141,-5.1146,-5.115,-5.1152,-5.137,-5.1372,0,0,0,0,0,0,-5.0785,-5.0803,-5.0945,-5.0951,-5.0857,-5.093,-5.0942,-5.0976,-5.1037,-5.1045,-5.0997,-5.0995,-5.1093,-5.1104,-5.1114,-5.1206,-5.1147,-5.1153,-5.1156,-5.1368,-5.1371,-5.1373,0,0,0,0,0,0,-5.0781,-5.0798,-5.0941,-5.0878,-5.0896,-5.0936,-5.0973,-5.0979,-5.1004,-5.1048,-5.1055,-5.1016,-5.1092,-5.1106,-5.1177,-5.121,-5.1155,-5.1161,-5.1365,-5.1369,-5.1372,-5.1391,0,0,0,0,0,0,-5.0775,-5.0796,-5.0825,-5.0878,-5.0899,-5.1002,-5.0975,-5.0982,-5.1014,-5.1013,-5.1067,-5.1074,-5.1092,-5.1168,-5.1183,-5.1217,-5.1165,-5.1362,-5.1367,-5.1371,-5.1388,-5.1395,-5.1401,0,0,0,0,0,-5.0768,-5.0826,-5.0826,-5.0843,-5.0936,-5.1004,-5.1016,-5.1035,-5.1017,-5.1046,-5.1075,-5.1072,-5.1204,-5.1175,-5.1192,-5.1229,-5.136,-5.1365,-5.137,-5.1385,-5.1393,-5.14,0,0,0,0,0,0,-5.0774,-5.0833,-5.0834,-5.091,-5.0952,-5.1004,-5.1041,-5.1043,-5.1091,-5.1087,-5.1109,-5.1122,-5.1192,-5.1218,-5.1184,-5.1305,-5.128,-5.1289,-5.1285,-5.1294,-5.13,-5.1292,-5.117,0,0,0,0,0,-5.0785,-5.0835,-5.0884,-5.0946,-5.0967,-5.1001,-5.1031,-5.1043,-5.1086,-5.1104,-5.1137,-5.118,-5.1231,-5.1264,-5.1314,-5.1392,-5.1404,-5.1426,-5.1432,-5.1437,-5.1444,-5.1488,-5.1498,-5.1389,-5.1389,-5.1389,0,0,-5.0806,-5.0845,-5.0875,-5.0949,-5.0982,-5.1034,-5.1015,-5.107,-5.1109,-5.1112,-5.1181,-5.1208,-5.1257,-5.1332,-5.1366,-5.1355,-5.1477,-5.1444,-5.1447,-5.1451,-5.1494,-5.1504,-5.1513,-5.1393,-5.1392,-5.1392,0,0,-5.0872,-5.0906,-5.0962,-5.0997,-5.1048,-5.107,-5.1084,-5.1136,-5.1154,-5.1224,-5.1227,-5.1274,-5.1361,-5.1396,-5.1426,-5.1507,-5.1506,-5.1522,-5.1556,-5.1598,-5.1607,-5.1614,-5.1643,-5.1653,-5.1529,-5.1529,-5.1529,0,-5.0892,-5.0969,-5.0991,-5.1046,-5.1078,-5.1085,-5.1142,-5.1175,-5.124,-5.1262,-5.1249,-5.136,-5.1393,-5.1477,-5.1497,-5.152,-5.1537,-5.1515,-5.1604,-5.1612,-5.1619,-5.1646,-5.1657,-5.1531,-5.1531,-5.1531,-5.153,0,-5.0991,-5.1046,-5.1085,-5.1148,-5.1185,-5.1241,-5.1271,-5.1306,-5.1315,-5.1339,-5.1411,-5.1452,-5.151,-5.1531,-5.154,-5.1616,-5.1608,-5.1599,-5.1574,-5.1631,-5.1657,-5.1667,-5.1533,-5.1533,-5.1532,-5.1532,0,0,-5.1061,-5.1137,-5.1151,-5.118,-5.1238,-5.128,-5.1337,-5.1395,-5.1424,-5.147,-5.1518,-5.1593,-5.1586,-5.1619,-5.1633,-5.167,-5.1732,-5.1657,-5.1659,-5.1669,-5.1818,-5.1823,-5.1835,-5.1733,-5.1735,-5.1736,-5.1814,0,-5.1132,-5.1233,-5.1255,-5.1342,-5.1392,-5.14,-5.145,-5.1492,-5.1516,-5.1562,-5.1589,-5.1642,-5.1629,-5.1649,-5.1687,-5.1716,-5.1762,-5.1711,-5.1777,-5.1779,-5.1763,-5.1849,-5.1854,-5.1925,-5.1824,-5.1826,-5.1827,0,-5.1228,-5.1276,-5.1368,-5.1421,-5.1443,-5.1487,-5.1542,-5.1586,-5.1634,-5.1649,-5.1687,-5.1697,-5.1757,-5.1731,-5.1814,-5.1779,-5.1808,-5.1827,-5.183,-5.1836,-5.1805,-5.1855,-5.1948,-5.1958,-5.1844,-5.1842,-5.1841,0,-5.1268,-5.1356,-5.1423,-5.1448,-5.1511,-5.1542,-5.157,-5.1616,-5.1649,-5.1698,-5.172,-5.1775,-5.1804,-5.1847,-5.1871,-5.185,-5.1953,-5.1928,-5.1967,-5.1966,-5.1986,-5.1984,-5.2083,-5.2007,-5.2007,-5.2007,-5.2006,0,-5.1344,-5.14,-5.1442,-5.1483,-5.1547,-5.1572,-5.1634,-5.1661,-5.1703,-5.1749,-5.176,-5.1804,-5.1835,-5.1883,-5.1903,-5.1968,-5.1982,-5.1996,-5.2,-5.1994,-5.1992,-5.2012,-5.2007,-5.2009,-5.2009,-5.2008,-5.2008,0,-5.1399,-5.143,-5.1503,-5.1558,-5.1573,-5.1617,-5.1664,-5.1704,-5.173,-5.1789,-5.1804,-5.1844,-5.1901,-5.1931,-5.2002,-5.2016,-5.209,-5.2092,-5.2073,-5.2075,-5.2111,-5.2107,-5.2225,-5.2241,-5.2155,-5.2156,-5.2157,0,-5.1445,-5.1488,-5.1548,-5.158,-5.1609,-5.1661,-5.1695,-5.1723,-5.1758,-5.1817,-5.185,-5.1908,-5.1956,-5.2047,-5.2083,-5.2138,-5.214,-5.2178,-5.2149,-5.2141,-5.214,-5.2137,-5.2141,-5.2183,-5.2183,-5.2184,-5.2185,0,-5.1523,-5.1536,-5.1586,-5.1641,-5.1682,-5.1727,-5.1771,-5.1797,-5.1832,-5.1871,-5.193,-5.1967,-5.2041,-5.2099,-5.2157,-5.2186,-5.2191,-5.2194,-5.2206,-5.2199,-5.2186,-5.2193,-5.2086,-5.2191,-5.219,-5.219,-5.2189,-5.2189,-5.1574,-5.1613,-5.1661,-5.1717,-5.1753,-5.1795,-5.1835,-5.1867,-5.1916,-5.1978,-5.1992,-5.2054,-5.2102,-5.2181,-5.2212,-5.2261,-5.2253,-5.227,-5.2274,-5.2278,-5.2279,-5.218,-5.2272,-5.2272,-5.2272,-5.2272,-5.2272,0,-5.1651,-5.1683,-5.1734,-5.1796,-5.184,-5.1842,-5.1892,-5.1928,-5.1983,-5.2027,-5.2075,-5.2143,-5.2199,-5.224,-5.2298,-5.2329,-5.2333,-5.2343,-5.2341,-5.2347,-5.2283,-5.2267,-5.2339,-5.2339,-5.2339,-5.2339,-5.2339,-5.2339,-5.1697,-5.1763,-5.1783,-5.1868,-5.1899,-5.1961,-5.1989,-5.2027,-5.2063,-5.2139,-5.2186,-5.2212,-5.2256,-5.2317,-5.2369,-5.238,-5.24,-5.241,-5.242,-5.2359,-5.2352,-5.2345,-5.233,-5.2414,-5.2414,-5.248,-5.2481,-5.2481]},{"header":{"parameterUnit":"m.s-1","parameterCategory":1,"la1":30.2991,"la2":30.254,"lo1":-89.0895,"lo2":-89.0444,"dy":0.0017,"dx":0.0017,"nx":28,"ny":28,"refTime":"2024-12-25T09:00:00:Z","depth":0,"parameterNumber":3,"parameterNumberName":"V-component_of_WINDS"},"data":[0,0,0,0,0,0,0,0,0,0,0,0,0,0,0,0,0,0,0,0,0,0,0,0,0,0,0,0,0,0,0,0,0,0,0,0,0,0,0,0,0,0,0,0,0,0,0,0,0,0,0,0,0,0,0,0,0,0,3.0415,3.0415,0,3.0437,3.0437,3.0437,3.0439,3.0439,3.0439,3.0438,3.0457,3.0458,3.0459,0,0,0,0,0,0,0,0,0,0,0,0,0,3.0372,3.0373,3.0415,3.0415,3.0415,3.0437,3.0437,3.0438,3.0439,3.0439,3.0439,3.0438,3.0457,3.0458,3.0459,0,0,0,0,0,0,0,0,0,0,0,0,0,3.0392,3.0373,3.0414,3.0419,3.0419,3.0437,3.0437,3.0438,3.0439,3.0439,3.0439,3.0438,3.0457,3.0458,3.0459,3.0473,0,0,3.0462,3.0463,0,0,0,0,0,0,0,0,3.0391,3.0393,3.0418,3.0418,3.0419,3.0435,3.0429,3.0449,3.0439,3.0432,3.0438,3.0438,3.045,3.0452,3.0456,3.0474,3.0474,3.0462,3.0463,3.0464,3.0464,0,0,0,0,0,0,0,3.0389,3.0393,3.0423,3.0418,3.0419,3.0419,3.0422,3.0433,3.0442,3.0432,3.0432,3.0435,3.045,3.0455,3.0457,3.0475,3.0462,3.0463,3.0464,3.0464,3.0508,3.0508,0,0,0,0,0,0,3.0388,3.0391,3.0423,3.0424,3.0404,3.042,3.0423,3.043,3.0442,3.0444,3.0436,3.0435,3.0454,3.0456,3.0458,3.0477,3.0464,3.0465,3.0465,3.0507,3.0508,3.0509,0,0,0,0,0,0,3.0387,3.039,3.0422,3.0408,3.0412,3.0421,3.0429,3.0431,3.0436,3.0445,3.0446,3.0439,3.0454,3.0456,3.047,3.0478,3.0465,3.0466,3.0507,3.0508,3.0508,3.0514,0,0,0,0,0,0,3.0385,3.039,3.0395,3.0408,3.0413,3.0434,3.043,3.0432,3.0438,3.0438,3.0449,3.045,3.0453,3.0469,3.0471,3.0479,3.0467,3.0506,3.0507,3.0508,3.0514,3.0515,3.0517,0,0,0,0,0,3.0384,3.0394,3.0396,3.0399,3.042,3.0435,3.0437,3.0442,3.0439,3.0445,3.0451,3.045,3.0476,3.047,3.0473,3.0481,3.0506,3.0507,3.0508,3.0513,3.0515,3.0517,0,0,0,0,0,0,3.038,3.0396,3.0397,3.0413,3.0423,3.0435,3.0442,3.0444,3.0453,3.0453,3.0457,3.046,3.0474,3.0479,3.0471,3.0497,3.0491,3.0492,3.0493,3.0495,3.0497,3.0496,3.0468,0,0,0,0,0,3.0382,3.0393,3.0406,3.0418,3.0423,3.0432,3.0438,3.0442,3.0452,3.0455,3.0462,3.0471,3.0482,3.0489,3.0499,3.0514,3.0518,3.0522,3.0523,3.0524,3.0526,3.0538,3.054,3.0512,3.0512,3.0512,0,0,3.0383,3.0394,3.04,3.0418,3.0426,3.0438,3.0435,3.0447,3.0456,3.0457,3.0472,3.0477,3.0487,3.0503,3.051,3.0508,3.0535,3.0526,3.0527,3.0528,3.0539,3.0542,3.0544,3.0513,3.0513,3.0513,0,0,3.0394,3.0402,3.0415,3.0424,3.0437,3.0443,3.0447,3.046,3.0464,3.048,3.0481,3.0492,3.0509,3.0518,3.0524,3.0542,3.0542,3.0545,3.0553,3.0564,3.0566,3.0568,3.0577,3.058,3.0546,3.0546,3.0546,0,3.0394,3.0413,3.042,3.0434,3.0442,3.0446,3.0459,3.0467,3.0482,3.0488,3.0485,3.051,3.0517,3.0536,3.0541,3.0545,3.055,3.0544,3.0566,3.0568,3.057,3.0578,3.0581,3.0547,3.0547,3.0547,3.0547,0,3.0414,3.0428,3.0436,3.0454,3.0463,3.0476,3.0486,3.0494,3.0498,3.0505,3.0521,3.053,3.0544,3.0549,3.055,3.0569,3.0567,3.0565,3.0559,3.0573,3.0581,3.0584,3.0547,3.0547,3.0547,3.0547,0,0,3.0421,3.0445,3.0448,3.0458,3.0475,3.0485,3.0499,3.0514,3.0523,3.0534,3.0546,3.0563,3.0563,3.057,3.0573,3.0583,3.06,3.058,3.058,3.0585,3.0623,3.0626,3.063,3.06,3.06,3.0601,3.0623,0,3.0434,3.0461,3.047,3.0492,3.0506,3.0511,3.0524,3.0535,3.0543,3.0555,3.0563,3.0576,3.0572,3.0578,3.0587,3.0595,3.0608,3.0594,3.0612,3.0613,3.0611,3.0633,3.0635,3.0656,3.0626,3.0627,3.0627,0,3.0453,3.0468,3.0492,3.0511,3.0517,3.0528,3.0545,3.0556,3.0571,3.0575,3.0586,3.059,3.0605,3.0599,3.0621,3.0612,3.062,3.0625,3.0626,3.0629,3.0621,3.0638,3.0662,3.0666,3.0631,3.0631,3.0631,0,3.0458,3.0483,3.0502,3.051,3.0531,3.054,3.0549,3.0563,3.0573,3.0587,3.0594,3.0609,3.0617,3.0629,3.0637,3.0631,3.066,3.0653,3.0665,3.0665,3.0671,3.067,3.0698,3.0674,3.0674,3.0674,3.0674,0,3.0472,3.0487,3.0505,3.0517,3.0535,3.0545,3.0562,3.0571,3.0585,3.0599,3.0603,3.0616,3.0625,3.0639,3.0645,3.0665,3.0668,3.0673,3.0674,3.0673,3.0673,3.0679,3.0678,3.0674,3.0674,3.0674,3.0674,0,3.048,3.0492,3.0514,3.0534,3.054,3.0552,3.0569,3.0581,3.059,3.0608,3.0613,3.0626,3.0644,3.0653,3.0673,3.0678,3.07,3.07,3.0696,3.0697,3.0709,3.0709,3.0743,3.0749,3.0719,3.072,3.072,0,3.0489,3.0501,3.0524,3.0535,3.0545,3.0562,3.0573,3.0584,3.0596,3.0615,3.0625,3.0644,3.0659,3.0687,3.0698,3.0715,3.0716,3.0727,3.0718,3.0718,3.0719,3.0718,3.0721,3.0729,3.0729,3.0729,3.0729,0,3.0504,3.0511,3.0527,3.0548,3.0562,3.0578,3.0593,3.0601,3.0615,3.0628,3.0648,3.066,3.0684,3.0702,3.0721,3.073,3.0732,3.0732,3.0736,3.0735,3.0734,3.0737,3.0702,3.0731,3.0731,3.0731,3.0731,3.0731,3.0513,3.0526,3.0546,3.0565,3.0579,3.0595,3.0608,3.0621,3.0637,3.0659,3.0664,3.0685,3.0702,3.0728,3.0738,3.0754,3.0752,3.0757,3.0759,3.076,3.0762,3.0731,3.0757,3.0757,3.0757,3.0757,3.0757,0,3.053,3.0544,3.0562,3.0586,3.0602,3.0606,3.0624,3.0637,3.0656,3.0673,3.0689,3.0713,3.0732,3.0747,3.0766,3.0777,3.0779,3.0782,3.0782,3.0784,3.0762,3.0757,3.078,3.078,3.078,3.078,3.078,3.078,3.0541,3.0564,3.0574,3.0604,3.0618,3.064,3.0651,3.0666,3.068,3.0707,3.0724,3.0734,3.075,3.0772,3.079,3.0794,3.0802,3.0805,3.0809,3.0788,3.0785,3.0783,3.0779,3.0806,3.0806,3.083,3.0831,3.0831]}]]